Lapse_Rate
5.8 5.9 5.7 5.5 5.0 4.3 4.2 4.4 4.2 4.4 4.1 3.8 3.6 3.4 3.2 3.1 3.6 3.9 4.1 4.3 4.8 5.0 5.5 5.7 6.2 6.2 6.0 5.8 6.1 5.9 6.0 6.1 6.1 6.2 6.3 6.2 6.2 6.2
5.9 5.8 5.6 5.4 5.4 5.1 4.8 4.3 4.3 5.0 4.3 3.9 3.7 3.5 3.7 4.0 3.4 3.6 4.0 3.9 4.1 4.7 5.0 5.8 5.8 6.0 5.9 5.8 5.9 6.0 6.0 6.0 6.1 6.1 6.2 6.3 6.2 6.2
5.8 5.7 5.8 5.8 5.6 5.4 4.5 4.4 4.5 4.7 5.3 5.5 5.0 4.6 4.9 4.5 4.4 4.1 3.8 4.3 4.4 4.6 5.2 5.6 5.7 5.9 6.1 5.7 5.7 5.9 6.0 5.9 5.9 6.1 6.0 6.1 6.2 6.1
6.3 6.0 5.9 5.9 5.7 5.7 5.4 5.3 5.0 5.2 5.2 5.7 5.9 5.5 5.1 4.6 4.6 4.5 4.8 4.9 4.3 4.4 5.1 5.8 6.3 6.4 6.4 6.1 5.8 6.0 6.1 6.0 5.8 5.9 6.1 6.0 6.0 6.2
6.0 5.9 5.6 5.6 5.5 5.3 5.2 4.9 4.7 4.8 4.8 4.6 4.7 4.4 4.3 4.4 4.3 4.0 4.4 4.2 4.2 4.8 5.5 6.3 6.7 6.7 6.5 6.2 6.2 6.2 6.1 6.0 5.9 5.8 5.9 6.1 6.1 6.0
5.6 5.7 5.6 5.4 5.6 5.8 5.6 5.5 5.2 5.2 4.9 4.1 4.1 4.2 5.0 4.6 4.0 4.2 4.5 4.1 4.1 4.8 5.5 5.9 5.7 6.3 6.8 6.8 6.8 6.7 6.6 6.4 6.3 6.3 6.2 5.9 6.2 6.2
5.5 5.4 5.5 5.5 5.6 5.5 5.5 5.7 5.8 5.2 5.2 4.6 4.5 4.9 4.2 4.2 4.8 4.5 4.6 4.6 5.2 5.4 6.0 6.2 6.3 6.7 6.6 6.7 7.0 7.2 7.0 6.8 6.5 6.2 6.1 6.1 6.1 6.3
5.0 4.9 5.4 5.4 5.4 5.6 5.4 5.4 5.6 5.4 5.2 5.2 5.3 5.1 5.1 5.3 5.3 5.4 5.5 5.7 6.1 6.0 6.0 6.2 6.2 6.5 6.7 6.8 7.2 7.3 7.1 6.8 6.6 6.2 6.1 6.3 6.4 6.3
4.7 4.7 5.3 5.3 5.4 5.3 5.5 5.4 5.4 5.2 4.8 5.0 5.5 5.5 5.4 5.5 5.4 5.6 5.8 6.1 6.1 6.2 6.2 6.4 6.4 6.5 6.8 7.1 7.4 7.3 7.0 6.5 6.4 6.3 6.4 6.5 6.4 6.5
4.8 4.7 4.9 4.9 5.1 5.0 4.7 5.1 5.3 5.1 5.7 5.7 5.8 6.0 5.8 5.7 5.6 5.6 5.8 6.2 6.5 6.5 6.5 6.7 6.4 6.6 7.0 7.1 7.3 7.2 6.6 5.8 5.6 5.8 6.2 6.4 6.5 6.4
4.8 4.8 4.9 5.0 5.0 5.2 5.0 5.3 5.1 5.6 5.7 5.8 6.0 6.0 5.9 5.8 5.3 5.3 5.9 6.4 6.5 6.5 6.8 6.7 6.1 6.3 6.4 6.9 7.1 6.9 6.1 5.4 5.0 5.1 5.5 5.9 6.3 6.1
5.0 5.1 5.0 5.0 5.2 5.1 5.3 5.4 5.8 5.8 5.8 5.9 5.7 5.8 6.0 6.1 6.1 6.5 6.7 6.6 6.5 6.7 6.8 6.4 6.4 6.4 6.2 6.3 6.4 6.4 5.5 5.1 5.0 5.3 5.2 5.3 6.1 6.1
5.4 5.2 5.1 5.5 5.4 5.4 5.5 5.7 5.7 5.9 5.9 5.8 5.9 6.1 6.1 5.9 5.9 5.9 6.3 6.2 6.4 6.5 6.7 6.3 6.2 5.9 5.5 5.5 6.5 6.1 5.6 5.8 5.3 5.3 5.2 5.3 5.8 5.9
5.6 5.5 5.5 5.9 5.8 5.8 6.0 6.1 5.9 6.1 6.2 6.2 6.1 6.1 6.1 6.2 6.5 6.6 6.6 6.6 6.5 6.4 6.5 6.0 5.8 5.6 5.4 5.8 6.3 6.3 5.8 5.5 5.2 5.3 5.2 5.1 5.2 5.7
5.8 5.6 5.8 5.9 5.8 5.9 6.1 6.0 6.1 6.2 6.3 6.3 6.2 6.1 6.2 6.4 6.7 6.8 6.9 6.8 6.7 6.6 6.5 5.8 5.6 5.6 5.5 5.7 5.4 5.1 4.9 5.5 5.5 5.3 5.1 5.0 5.6 5.6
5.9 5.7 5.8 5.8 5.9 6.0 6.1 6.2 6.3 6.4 6.4 6.4 6.2 6.2 6.4 6.7 6.8 6.9 6.9 6.9 6.6 6.6 6.4 5.8 5.7 5.6 5.6 5.4 5.2 5.2 5.0 5.1 4.9 5.2 5.5 5.2 5.5 5.3
5.7 5.8 6.0 6.1 6.2 6.4 6.6 6.9 6.6 6.3 6.4 6.4 6.3 6.5 6.7 6.9 6.9 6.9 6.8 6.7 6.5 6.4 6.5 6.1 5.8 5.8 5.7 5.5 5.3 5.0 5.0 5.4 5.9 5.4 5.5 5.7 5.4 5.3
5.9 5.7 5.9 6.2 6.2 6.4 6.0 5.5 5.7 5.9 6.3 6.5 6.6 6.7 6.9 6.9 6.9 6.8 6.6 6.5 6.5 6.4 6.1 5.8 5.7 5.9 6.0 6.5 5.2 4.8 4.8 5.3 5.7 5.7 5.4 5.8 5.6 5.4
5.8 5.9 6.1 6.3 6.1 5.9 5.8 5.6 5.8 6.0 6.4 6.5 6.7 6.7 6.8 6.9 6.7 6.6 6.4 6.5 6.5 6.3 6.1 5.6 5.6 5.5 5.8 5.8 5.5 4.6 4.8 5.1 5.4 5.1 5.2 5.6 5.6 5.4
5.9 6.0 6.1 6.0 5.9 5.7 5.7 5.7 5.9 6.2 6.5 6.7 6.8 6.8 6.6 6.6 6.6 6.4 6.4 6.5 6.4 6.4 6.2 5.6 5.5 5.5 5.4 4.9 4.8 4.9 4.4 4.9 5.5 5.8 5.7 5.8 5.6 5.5
5.7 6.1 6.1 5.9 5.8 6.2 6.3 6.3 6.3 6.4 6.6 6.7 6.7 6.7 6.6 6.5 6.5 6.5 6.5 6.5 6.4 6.2 6.3 6.2 5.8 5.4 5.3 5.3 5.3 5.1 4.6 4.5 5.2 5.8 6.0 5.9 5.7 5.6
5.8 6.0 5.8 5.8 6.1 6.3 6.4 6.4 6.5 6.7 6.8 6.8 6.8 6.7 6.6 6.6 6.6 6.5 6.4 6.4 6.3 6.1 6.0 5.9 5.5 5.2 5.1 5.4 5.1 5.1 4.5 4.2 4.5 5.1 5.9 5.9 6.1 6.4
5.9 6.0 5.6 6.0 6.2 6.5 6.4 6.5 6.7 6.9 6.9 6.9 6.8 6.7 6.7 6.6 6.6 6.6 6.5 6.3 6.2 6.0 5.9 5.4 5.3 5.1 5.1 5.2 5.0 5.1 4.5 4.0 4.3 4.7 5.4 5.8 6.2 6.4
Wind_Speed
6 7 7 7 5 4 3 1 4 6 5 7 6 5 4 10 6 8 13 11 18 15 15 18 19 18 18 18 18 18 19 20 21 21 22 24 26 26
7 6 5 7 5 6 5 8 4 7 8 7 7 6 7 11 12 10 14 11 18 24 25 25 24 22 21 22 22 22 22 23 23 23 23 24 25 27
7 7 7 6 7 7 5 5 6 6 8 7 9 9 6 8 11 13 15 14 18 22 24 23 25 26 26 26 26 25 26 25 26 25 25 25 25 28
9 9 9 9 8 8 6 7 6 5 7 9 9 9 9 9 7 8 10 18 17 17 15 19 25 28 28 29 30 29 30 30 29 27 27 27 27 27
9 9 9 9 6 7 7 7 6 5 6 8 8 6 8 7 11 8 7 9 17 20 25 30 27 29 30 32 33 33 31 33 33 30 30 28 28 27
8 9 8 6 7 8 9 8 9 7 10 8 7 9 10 8 11 8 8 7 9 13 16 19 30 27 30 33 34 32 33 35 34 32 29 29 29 30
9 9 9 9 8 7 5 6 9 8 9 9 9 8 9 8 9 9 10 11 8 9 9 10 11 12 16 21 23 29 32 29 30 32 31 30 30 30
8 9 6 6 7 4 6 5 4 8 11 10 10 10 10 9 8 8 10 12 12 10 11 11 11 12 12 21 25 24 24 19 22 28 31 31 31 29
9 9 10 8 4 7 7 9 11 14 19 11 10 9 10 10 10 11 11 11 13 12 12 13 12 12 12 20 23 16 23 28 26 27 28 30 30 31
11 11 10 9 9 6 8 9 11 13 11 9 12 12 11 9 10 11 12 13 13 12 9 13 12 14 13 13 20 19 30 33 30 33 33 32 32 32
11 11 8 8 9 10 6 7 8 9 11 14 6 5 11 16 15 9 10 11 12 11 12 13 11 13 13 14 15 25 23 30 31 30 31 29 30 30
8 9 7 12 8 9 8 8 10 11 10 10 7 9 16 15 24 13 11 9 11 13 11 12 12 13 14 13 12 13 13 26 27 26 26 25 24 15
8 7 9 11 8 6 4 7 8 7 8 9 10 10 10 9 10 7 6 9 12 13 12 11 13 13 11 13 11 13 14 16 15 15 17 20 21 23
10 7 4 8 7 7 5 1 2 5 8 10 10 9 10 10 9 8 10 12 14 12 16 14 11 11 12 14 16 14 17 15 12 13 12 16 21 30
3 5 9 7 5 4 8 6 6 8 9 8 9 9 9 9 9 11 9 11 12 14 11 8 7 12 10 12 13 15 12 10 11 10 11 14 9 9
8 7 4 1 2 1 4 7 6 8 7 8 9 9 9 9 10 10 10 11 11 10 10 14 10 13 12 10 12 14 10 7 13 13 13 11 9 10
8 6 6 7 8 8 5 4 7 7 7 7 8 8 9 9 9 9 9 11 11 10 9 10 12 12 11 9 12 11 11 11 12 12 14 6 3 7
3 7 8 7 7 7 4 5 5 5 6 6 7 8 8 9 9 9 9 10 10 11 10 8 10 12 11 8 11 9 10 11 12 13 11 8 5 6
6 7 5 6 6 5 5 6 6 6 5 7 7 8 8 8 8 9 9 10 10 10 9 6 9 8 9 11 7 2 11 11 11 11 10 9 6 5
7 6 4 4 5 5 5 6 6 6 6 6 7 7 7 7 8 9 9 10 11 11 7 7 6 8 8 6 8 9 11 10 10 11 11 9 9 9
5 4 4 4 4 4 4 5 5 6 5 6 7 7 6 7 8 8 9 10 11 10 9 8 6 10 7 9 7 9 11 15 12 10 12 10 6 3
5 4 4 3 4 4 4 4 5 6 6 5 5 5 6 7 8 9 9 10 10 10 9 8 6 5 7 6 9 12 10 12 14 16 17 15 6 6
5 4 4 3 4 4 4 5 6 6 5 4 5 5 6 7 8 8 9 10 10 10 8 7 7 2 8 5 8 9 13 13 11 11 12 22 17 23
Wind_Direction
250 228 255 267 257 280 263 256 236 269 285 316 312 228 265 249 234 281 282 278 215 230 243 264 263 268 271 277 280 281 279 279 278 276 276 275 271 270
252 256 264 284 280 253 242 249 300 293 301 302 298 316 318 305 282 254 272 260 237 241 247 249 249 259 266 269 270 271 272 272 272 270 269 269 270 267
239 274 266 269 267 279 302 321 306 296 308 313 329 312 336 294 282 278 271 269 275 256 243 242 243 247 253 260 264 264 265 265 265 263 264 263 263 265
233 233 244 243 212 233 250 248 263 292 276 303 295 294 274 273 262 262 261 278 280 276 232 229 235 244 252 257 260 258 257 258 259 258 257 256 255 255
233 235 237 250 268 280 303 293 288 280 273 285 302 303 300 308 294 275 259 257 269 270 260 244 242 246 252 255 254 254 252 253 254 252 252 250 249 249
231 244 248 268 264 257 259 261 258 253 269 272 274 268 266 267 257 278 285 268 270 278 302 301 285 255 246 251 249 248 249 248 248 247 247 247 244 244
241 238 239 249 304 289 284 284 307 292 294 297 291 284 263 299 317 309 302 300 285 285 290 286 292 292 290 286 272 243 241 243 242 244 244 242 240 237
244 254 292 276 260 254 266 279 294 294 283 274 283 286 293 300 301 285 289 292 296 293 297 292 294 288 284 276 267 268 276 261 249 245 245 240 236 232
225 244 244 251 220 267 231 215 227 244 241 258 272 275 297 295 300 292 291 298 289 296 301 289 286 281 278 274 277 283 286 284 274 264 247 239 235 233
241 239 243 258 247 235 252 241 240 246 234 235 246 262 272 298 302 292 288 279 272 266 273 288 294 279 276 285 286 297 293 281 276 271 261 246 237 233
239 241 232 252 245 223 230 257 257 257 264 218 232 276 264 265 259 283 283 291 293 293 284 272 290 305 301 295 294 283 298 289 277 274 266 253 237 224
218 242 238 249 201 195 230 257 268 275 283 283 238 248 250 249 241 237 260 272 288 286 302 314 306 301 300 291 292 289 285 278 277 269 267 251 236 228
234 243 244 177 172 197 238 274 291 327 291 282 271 266 269 283 277 259 275 302 298 298 304 309 299 299 296 307 297 295 289 285 280 277 261 242 217 212
258 259 207 149 167 184 216 76 301 301 275 273 272 281 292 294 301 325 323 290 276 274 285 282 283 293 303 306 305 312 306 290 274 270 266 260 218 208
332 80 107 163 158 233 246 242 264 268 266 271 285 297 303 313 314 286 288 302 287 279 285 323 309 301 299 302 304 307 304 321 302 282 280 267 204 196
152 173 132 150 315 52 141 205 244 256 290 310 295 290 305 302 306 309 310 310 303 299 325 297 318 305 305 299 301 305 302 314 314 303 299 285 177 193
186 200 216 222 232 207 206 226 229 261 270 291 298 306 304 306 307 315 317 302 301 308 312 305 335 304 306 304 297 300 303 319 318 314 318 291 236 208
193 253 257 258 260 282 263 248 269 270 270 294 311 298 306 309 314 317 304 311 310 313 322 320 327 332 328 317 290 307 317 322 318 316 305 290 259 250
236 259 266 284 288 287 286 284 288 297 355 285 285 304 301 308 311 316 318 316 325 320 332 4 338 345 326 326 302 251 329 334 327 327 327 313 272 253
254 271 270 263 273 281 288 290 296 304 298 300 306 297 304 314 316 317 320 325 324 313 330 354 338 341 323 307 312 318 329 336 337 331 331 316 278 278
233 228 257 281 279 270 277 287 302 294 315 310 288 297 316 315 317 319 317 313 305 326 340 329 338 305 289 317 336 341 343 350 340 339 343 327 321 279
246 249 257 275 282 285 288 298 284 274 272 277 303 317 308 318 316 321 323 322 325 335 359 2 355 343 346 337 337 335 345 344 348 348 358 7 345 324
232 244 276 262 255 266 279 281 277 271 281 288 303 308 320 313 318 323 320 325 332 330 4 348 337 322 4 335 336 339 345 347 352 350 360 350 356 13